Location: Detroit
(42.3310°N, 83.0460°W)
Time: 05:42:56
(UTC-05:00)

Courier 1B - All Passes

Search period start: 31 January 2023 00:00
Search period end: 10 February 2023 00:00
Orbit: 962 x 1209 km, 28.3° (Epoch: 31 January)

Date Brightness Start Highest point End Pass type
(mag) Time Alt. Az. Time Alt. Az. Time Alt. Az.
31 Jan - 12:47:28 10° S 12:48:53 11° SSE 12:50:16 10° SE daylight
31 Jan - 14:37:09 10° SW 14:41:46 21° S 14:46:22 10° SE daylight
31 Jan - 16:29:57 10° SW 16:34:48 23° S 16:39:43 10° SE daylight
31 Jan - 18:24:21 10° SW 18:27:47 15° SSW 18:31:16 10° SSE visible
01 Feb - 13:43:56 10° SSW 13:48:16 18° SSE 13:52:33 10° SE daylight
01 Feb - 15:36:21 10° SW 15:41:17 23° S 15:46:13 10° SE daylight
01 Feb - 17:30:15 10° SW 17:34:17 17° SSW 17:38:22 10° SSE daylight
02 Feb - 12:50:52 10° SSW 12:54:46 16° SSE 12:58:34 10° SE daylight
02 Feb - 14:42:48 10° SW 14:47:46 23° S 14:52:40 10° SE daylight
02 Feb - 16:36:21 10° SW 16:40:47 20° SSW 16:45:15 10° SSE daylight
03 Feb - 11:58:05 10° S 12:01:15 14° SSE 12:04:21 10° SE daylight
03 Feb - 13:49:19 10° SW 13:54:14 22° S 13:59:04 10° SE daylight
03 Feb - 15:42:32 10° SW 15:47:17 21° S 15:52:00 10° SE daylight
03 Feb - 17:37:51 10° SW 17:40:11 12° SSW 17:42:32 10° S daylight
04 Feb - 11:06:00 10° S 11:07:44 11° SSE 11:09:28 10° SE daylight
04 Feb - 12:55:53 10° SW 13:00:42 21° S 13:05:24 10° SE daylight
04 Feb - 14:48:47 10° SW 14:53:46 23° S 14:58:39 10° SE daylight
04 Feb - 16:43:16 10° SW 16:46:43 15° SSW 16:50:10 10° SSE daylight
05 Feb - 12:02:34 10° SSW 12:07:10 19° SSE 12:11:37 10° SE daylight
05 Feb - 13:55:06 10° SW 14:00:14 24° S 14:05:15 10° SE daylight
05 Feb - 15:49:05 10° SW 15:53:14 18° SSW 15:57:21 10° SSE daylight
06 Feb - 11:09:24 10° SSW 11:13:37 17° SSE 11:17:41 10° SE daylight
06 Feb - 13:01:27 10° SW 13:06:41 24° S 13:11:45 10° SE daylight
06 Feb - 14:55:05 10° WSW 14:59:44 20° SSW 15:04:18 10° SSE daylight
07 Feb - 10:16:31 10° S 10:20:03 14° SSE 10:23:29 10° SE daylight
07 Feb - 12:07:51 10° SW 12:13:07 23° S 12:18:11 10° SE daylight
07 Feb - 14:01:11 10° WSW 14:06:13 22° S 14:11:06 10° SE daylight
07 Feb - 15:56:26 10° SW 15:59:07 13° SSW 16:01:47 10° S daylight
08 Feb - 09:24:13 10° S 09:26:28 12° SSE 09:28:43 10° SE daylight
08 Feb - 11:14:20 10° SW 11:19:32 22° S 11:24:32 10° ESE daylight
08 Feb - 13:07:21 10° SW 13:12:40 24° S 13:17:48 10° SE daylight
08 Feb - 15:01:51 10° SW 15:05:39 16° SSW 15:09:23 10° SSE daylight
09 Feb - 10:20:56 10° SSW 10:25:56 20° SSE 10:30:44 10° ESE daylight
09 Feb - 12:13:33 10° SW 12:19:05 25° S 12:24:23 10° SE daylight
09 Feb - 14:07:37 10° WSW 14:12:09 19° SSW 14:16:34 10° SSE daylight
